TimeAKDT,TemperatureF,Dew PointF,Humidity,Sea Level PressureIn,VisibilityMPH,Wind Direction,Wind SpeedMPH,Gust SpeedMPH,PrecipitationIn,Events,Conditions,WindDirDegrees,DateUTC
12:55 AM,46.4,43.2,88,29.74,10.0,NW,4.6,-,N/A,,Mostly Cloudy,310,2013-06-27 08:55:00
1:55 AM,45.9,42.6,88,29.73,10.0,Variable,1.2,-,N/A,,Overcast,0,2013-06-27 09:55:00
2:55 AM,49.6,41.0,72,29.73,10.0,Variable,2.3,-,N/A,,Overcast,0,2013-06-27 10:55:00
3:04 AM,48.2,42.8,82,29.73,10.0,Variable,4.6,-,N/A,Rain,Light Rain,0,2013-06-27 11:04:00
3:24 AM,51.8,41.0,67,29.72,10.0,Variable,1.2,-,N/A,,Mostly Cloudy,0,2013-06-27 11:24:00
3:55 AM,50.0,41.0,71,29.72,10.0,SSW,8.1,-,0.00,,Mostly Cloudy,210,2013-06-27 11:55:00
4:55 AM,58.5,38.5,47,29.71,10.0,SSW,10.4,21.9,N/A,,Mostly Cloudy,210,2013-06-27 12:55:00
5:55 AM,55.8,38.1,52,29.72,10.0,South,16.1,27.6,N/A,,Scattered Clouds,190,2013-06-27 13:55:00
6:55 AM,55.9,42.4,61,29.69,10.0,SSW,21.9,29.9,N/A,,Clear,200,2013-06-27 14:55:00
7:55 AM,55.8,40.5,56,29.68,10.0,SSW,23.0,-,N/A,,Clear,200,2013-06-27 15:55:00
8:55 AM,51.3,43.5,75,29.69,10.0,SSW,29.9,36.8,N/A,,Clear,210,2013-06-27 16:55:00
9:55 AM,46.6,41.9,84,29.69,10.0,SSW,39.1,48.3,N/A,,Clear,200,2013-06-27 17:55:00
10:55 AM,47.7,42.6,83,29.71,10.0,SW,31.1,43.7,N/A,,Partly Cloudy,220,2013-06-27 18:55:00
11:55 AM,46.9,42.4,84,29.73,10.0,SSW,31.1,42.6,N/A,,Partly Cloudy,210,2013-06-27 19:55:00
12:55 PM,48.4,42.3,79,29.75,10.0,SSW,33.4,43.7,N/A,,Partly Cloudy,210,2013-06-27 20:55:00
1:55 PM,46.4,41.9,84,29.76,10.0,SSW,33.4,40.3,N/A,,Scattered Clouds,200,2013-06-27 21:55:00
2:55 PM,45.7,41.2,84,29.78,10.0,SSW,33.4,42.6,N/A,,Mostly Cloudy,210,2013-06-27 22:55:00
3:04 PM,46.4,41.0,81,29.78,10.0,SSW,31.1,42.6,N/A,,Mostly Cloudy,210,2013-06-27 23:04:00
3:44 PM,46.4,41.0,81,29.78,10.0,SSW,31.1,46.0,N/A,,Mostly Cloudy,200,2013-06-27 23:44:00
3:55 PM,46.2,40.5,80,29.79,10.0,SSW,27.6,51.8,N/A,,Mostly Cloudy,210,2013-06-27 23:55:00
4:55 PM,48.2,40.5,75,29.79,10.0,SSW,28.8,42.6,N/A,,Scattered Clouds,210,2013-06-28 00:55:00
5:24 PM,48.2,41.0,76,29.81,10.0,SSW,26.5,44.9,N/A,,Mostly Cloudy,210,2013-06-28 01:24:00
5:55 PM,45.7,39.7,80,29.81,10.0,SW,33.4,46.0,N/A,,Mostly Cloudy,230,2013-06-28 01:55:00
6:55 PM,45.3,39.2,79,29.82,10.0,SSW,24.2,44.9,N/A,,Mostly Cloudy,200,2013-06-28 02:55:00
7:04 PM,44.6,39.2,81,29.81,10.0,South,21.9,36.8,N/A,,Mostly Cloudy,190,2013-06-28 03:04:00
7:44 PM,46.4,39.2,76,29.80,10.0,South,25.3,36.8,N/A,,Mostly Cloudy,190,2013-06-28 03:44:00
7:55 PM,46.0,39.2,77,29.79,10.0,South,27.6,41.4,N/A,,Mostly Cloudy,190,2013-06-28 03:55:00
8:55 PM,45.0,39.4,81,29.81,10.0,SSW,28.8,44.9,N/A,,Mostly Cloudy,210,2013-06-28 04:55:00
9:04 PM,44.6,39.2,81,29.81,10.0,SSW,29.9,42.6,N/A,,Mostly Cloudy,200,2013-06-28 05:04:00
9:24 PM,44.6,39.2,81,29.80,10.0,SSW,28.8,42.6,N/A,,Mostly Cloudy,200,2013-06-28 05:24:00
9:55 PM,42.6,39.2,88,29.81,10.0,SSW,26.5,44.9,N/A,,Mostly Cloudy,210,2013-06-28 05:55:00
10:24 PM,42.8,39.2,87,29.79,10.0,South,28.8,54.1,N/A,,Mostly Cloudy,190,2013-06-28 06:24:00
10:55 PM,43.5,39.2,85,29.78,10.0,SSW,38.0,51.8,N/A,,Mostly Cloudy,200,2013-06-28 06:55:00
11:55 PM,43.3,39.6,87,29.81,10.0,SSW,25.3,51.8,N/A,,Mostly Cloudy,210,2013-06-28 07:55:00